EHI
0 0 0 0 0 0 0 0 0 0 0 0 0 0 0 0 0 0 0 0 0 0 0 0 0 0 0 0 0 0 0 0 0 0 0 0 0 0 0 0 0 0 0
0 0 0 0 0 0 0 0 0 0 0 0 0 0 0 0 0 0 0 0 0 0 0 0 0 0 0 0 0 0 0 0 0 0 0 0 0 0 0 0 0 0 0
0 0 0 0 0 0 0 0 0 0 0 0 0 0 0 0 0 0 0 0 0 0 0 0 0 0 0 0 0 0 0 0 0 0 0 0 0 0 0 0 0 0 0
0 0 0 0 0 0 0 0 0 0 0 0 0 0 0 0 0 0 0 0 0 0 0 0 0 0 0 0 0 0 0 0 0 0 0 0 0 0 0 0 0 0 0
0 0 0 0 0 0 0 0 0 0 0 0 0 0 0 0 0 0 0 0 0 0 0 0 0 0 0 0 0 0 0 0 0 0 0 0 0 0 0 0 0 0 0
0 0 0 0 0 0 0 0 0 0 0 0 0 0 0 0 0 0 0 0 0 0 0 0 0 0 0 0 0 0 0 0 0 0 0 0 0 0 0 0 0 0 0
0 0 0 0 0 0 0 0 0 0 0 0 0 0 0 0 0 0 0 0 0 0 0 0 0 0 0 0 0 0 0 0 0 0 0 0 0 0 0 0 0 0 0
0 0 0 0 0 0 0 0 0 0 0 0 0 0 0 0 0 0 0 0 0 0 0 0 0 0 0 0 0 0 0 0 0 0 0 0 0 0 0 0 0 0 0
0 0 0 0 0 0 0 0 0 0 0 0 0 0 0 0 0 0 0 0 0 0 0 0 0 0 0 0 0 0 0 0 0 0 0 0 0 0 0 0 0 0 0
0 0 0 0 0 0 0 0 0 0 0 0 0 0 0 0 0 0 0 0 0 0 0 0 0 0 0 0 0 0 0 0 0 0 0 0 0 0 0 0 0 0 0
0 0 0 0 0 0 0 0 0 0 0 0 0 0 0 0 0 0 0 0 0 0 0 0 0 0 0 0 0 0 0 0 0 0 0 0 0 0 0 0 0 0 0
0 0 0 0 0 0 0 0 0 0 0 0 0 0 0 0 0 0 0 0 0 0 0 0 0 0 0 0 0 0 0 0 0 0 0 0 0 0 0 0 0 0 0
0 0 0 0 0 0 0 0 0 0 0 0 0 0 0 0 0 0 0 0 0 0 0 0 0 0 0 0 0 0 0 0 0 0 0 0 0 0 0 0 0 0 0
0 0 0 0 0 0 0 0 0 0 0 0 0 0 0 0 0 0 0 0 0 0 0 0 0 0 0 0 0 0 0 0 0 0 0 0 0 0 0 0 0 0 0
0 0 0 0 0 0 0 0 0 0 0 0 0 0 0 0 0 0 0 0 0 0 0 0 0 0 0 0 0 0 0 0 0 0 0 0 0 0 0 0 0 0 0
0 0 0 0 0 0 0 0 0 0 0 0 0 0 0 0 0 0 0 0 0 0 0 0 0 0 0 0 0 0 0 0 0 0 0 0 0 0 0 0 0 0 0
0 0 0 0 0 0 0 0 0 0 0 0 0 0 0 0 0 0 0 0 0 0 0 0 0 0 0 0 0 0 0 0 0 0 0 0 0 0 0 0 0 0 0
0 0 0 0 0 0 0 0 0 0 0 0 0 0 0 0 0 0 0 0 0 0 0 0 0 0 0 0 0 0 0 0 0 0 0 0 0 0 0 0 0 0 0
0 0 0 0 0 0 0 0 0 0 0 0 0 0 0 0 0 0 0 0 0 0 0 0 0 0 0 0 0 0 0 0 0 0 0 0 0 0 0 0 0 0 0
0 0 0 0 0 0 0 0 0 0 0 0 0 0 0 0 0 0 0 0 0 0 0 0 0 0 0 0 0 0 0 0 0 0 0 0 0 0 0 0 0 0 0
0 0 0 0 0 0 0 0 0 0 0 0 0 0 0 0 0 0 0 0 0 0 0 0 0 0 0 0 0 0 0 0 0 0 0 0 0 0 0 0 0 0 0
0 0 0 0 0 0 0 0 0 0 0 0 0 0 0 0 0 0 0 0 0 0 0 0 0 0 0 0 0 0 0 0 0 0 0 0 0 0 0 0 0 0 0
0 0 0 0 0 0 0 0 0 0 0 0 0 0 0 0 0 0 0 0 0 0 0 0 0 0 0 0 0 0 0 0 0 0 0 0 0 0 0 0 0 0 0
0 0 0 0 0 0 0 0 0 0 0 0 0 0 0 0 0 0 0 0 0 0 0 0 0 0 0 0 0 0 0 0 0 0 0 0 0 0 0 0 0 0 0
0 0 0 0 0 0 0 0 0 0 0 0 0 0 0 0 0 0 0 0 0 0 0 0 0 0 0 0 0 0 0 0 0 0 0 0 0 0 0 0 0 0 0
0 0 0 0 0 0 0 0 0 0 0 0 0 0 0 0 0 0 0 0 0 0 0 0 0 0 0 0 0 0 0 0 0 0 0 0 0 0 0 0 0 0 0
Wind_Speed
3 3 2 2 2 2 3 3 3 3 3 3 4 5 5 4 4 3 2 6 8 8 9 9 10 10 11 10 10 10 10 10 10 10 10 10 9 9 9 9 9 9 8
4 3 3 2 2 2 2 3 3 3 2 3 4 5 5 5 4 4 3 3 6 7 8 8 9 10 10 10 10 10 9 9 9 9 9 9 8 8 8 8 9 9 9
4 4 3 3 3 3 3 3 3 3 3 3 3 4 4 4 4 4 3 2 3 5 7 7 8 9 9 9 9 9 8 8 7 7 8 8 8 8 8 8 7 8 8
4 4 3 3 3 3 3 3 3 3 2 3 3 2 3 3 4 4 3 3 3 2 4 7 7 8 8 8 8 8 7 7 7 6 6 6 6 6 6 6 7 7 7
4 4 3 3 3 3 3 3 2 3 3 3 3 3 2 3 3 4 4 3 3 3 2 5 6 6 6 7 7 7 7 6 6 5 5 5 5 5 5 5 5 6 6
4 4 3 3 3 4 3 3 3 3 3 3 4 3 2 2 2 3 3 3 3 3 3 3 2 3 5 6 6 6 5 5 5 5 4 4 4 5 5 5 6 6 6
4 4 3 3 3 3 4 5 4 4 3 2 3 3 3 3 2 1 2 2 2 3 3 3 2 2 2 4 5 4 4 4 3 3 3 3 4 4 4 5 5 6 7
3 3 4 3 3 3 4 4 4 3 2 2 3 3 2 1 1 1 1 2 2 2 2 3 3 3 2 1 2 4 3 3 2 2 3 3 3 4 5 5 6 6 7
2 2 3 3 3 3 4 4 5 5 4 2 2 3 4 4 1 1 0 1 2 2 2 2 3 3 3 2 1 2 3 2 2 2 2 3 3 4 5 5 6 7 7
2 2 3 3 4 3 4 4 4 3 5 4 2 1 1 3 4 2 1 0 1 2 2 2 2 2 3 2 2 2 2 2 2 2 3 3 4 4 5 6 6 7 8
2 3 3 3 3 3 4 4 4 4 3 4 3 3 2 1 2 3 2 1 0 1 2 2 2 2 2 2 2 1 1 1 2 3 4 4 5 5 6 6 7 7 8
1 2 3 3 3 3 3 4 4 4 3 3 3 3 4 3 3 3 3 3 2 1 1 1 2 2 2 2 2 1 1 1 2 4 5 5 5 6 6 7 8 8 9
2 3 3 3 3 3 3 3 4 4 4 4 4 3 2 2 3 3 4 3 1 1 0 1 2 2 2 2 2 2 1 2 3 5 6 6 6 6 7 8 9 9 9
3 4 3 3 3 3 3 3 3 3 3 3 4 4 2 2 3 3 4 4 2 0 1 2 1 2 2 2 3 3 1 2 4 5 6 6 6 7 7 8 9 9 10
3 4 4 4 4 4 4 4 3 3 4 3 3 4 3 2 2 2 3 4 5 3 3 3 2 2 2 2 3 2 2 4 4 5 6 6 7 7 8 8 9 10 10
4 5 5 5 4 4 4 4 3 3 4 3 3 4 3 2 3 3 3 3 3 4 3 3 3 2 2 2 3 2 2 4 5 6 7 7 7 8 8 9 9 10 11
4 5 6 5 5 5 5 5 5 5 5 4 4 5 4 4 3 3 3 3 3 3 3 2 1 1 1 2 2 1 2 2 3 7 8 8 8 8 9 9 9 10 11
4 5 5 5 5 5 5 6 6 5 6 6 5 5 5 4 4 3 3 3 3 3 3 3 2 1 2 2 2 2 2 2 3 7 8 9 9 9 9 10 10 10 11
4 4 5 5 5 5 6 6 6 5 5 6 6 6 6 6 5 4 4 3 3 3 3 3 3 2 2 1 1 2 2 2 3 5 8 9 9 9 10 10 11 11 12
4 4 4 5 5 5 5 5 5 5 5 5 5 5 6 7 7 6 5 5 4 3 3 3 2 2 2 2 1 2 2 2 3 3 6 6 7 9 10 11 12 11 12
3 3 4 3 3 3 4 5 5 5 5 5 4 4 5 7 9 7 5 5 5 4 3 3 3 2 2 2 2 2 3 2 3 3 2 3 4 4 5 9 11 12 12
2 2 3 3 3 3 5 8 6 5 5 5 5 4 4 5 7 9 9 8 8 6 6 4 4 4 4 4 3 2 2 2 3 2 2 4 3 4 4 4 10 13 13
2 2 3 3 4 4 6 8 8 5 5 5 5 4 4 4 5 4 6 7 8 10 9 6 6 6 5 5 3 3 3 4 5 3 2 5 3 5 4 6 12 13 13
2 2 3 3 3 4 6 7 7 4 4 4 5 5 5 4 4 5 4 4 4 5 6 5 5 6 5 5 5 5 4 3 3 2 2 4 4 4 5 4 11 13 12
1 1 2 3 3 3 5 6 6 3 3 4 4 4 5 5 7 8 5 5 4 4 5 7 7 7 7 7 4 2 2 2 4 3 2 3 3 4 4 4 7 11 11
1 1 1 2 3 3 5 5 5 3 3 3 2 3 6 7 8 8 6 5 6 5 3 3 4 5 4 5 6 4 4 3 3 4 3 2 2 3 4 3 3 3 5
Wind_Direction
157 154 151 143 136 131 135 134 130 126 124 123 124 124 121 116 105 90 74 94 101 109 117 119 116 112 108 104 99 95 92 89 86 82 78 72 67 62 58 54 51 48 46
157 154 153 150 144 139 136 141 142 133 130 124 121 122 125 125 116 105 86 81 91 104 114 119 121 117 113 108 103 99 94 89 85 81 77 72 65 59 55 52 49 45 42
156 154 150 154 151 139 127 119 123 116 121 119 117 123 124 127 128 120 108 91 80 85 105 119 121 119 115 112 107 102 96 87 83 80 76 70 64 58 53 49 45 40 35
150 148 147 153 147 128 122 120 115 108 113 117 110 116 121 125 130 129 116 105 92 76 84 103 112 117 117 115 110 105 99 90 84 79 75 68 61 55 49 44 39 33 27
149 148 150 149 141 125 124 129 111 112 119 117 113 100 106 122 131 125 119 117 113 103 88 88 91 98 108 112 109 105 99 92 85 77 70 62 54 48 41 35 29 24 17
143 139 142 148 144 134 132 126 119 99 112 127 111 88 74 93 117 129 135 127 125 120 108 101 87 84 96 105 104 101 98 92 85 77 67 55 43 34 25 22 17 13 9
146 142 149 153 152 149 155 147 131 118 107 113 99 80 36 42 83 121 135 131 129 126 121 119 112 95 86 87 94 95 91 85 78 67 54 40 23 14 11 9 4 359 357
155 155 152 159 156 148 154 154 140 130 130 139 128 125 112 14 3 63 144 155 150 131 131 132 128 123 111 93 82 85 81 75 64 47 32 15 2 359 357 356 353 351 349
164 161 161 156 161 160 166 168 156 146 152 159 143 146 152 184 181 348 272 166 161 154 155 147 143 140 133 123 116 74 59 37 22 8 3 351 346 345 344 343 343 342 342
168 171 164 168 172 168 169 177 169 155 153 165 160 124 136 146 151 155 318 285 180 174 175 164 152 151 146 144 136 109 69 20 356 340 334 327 329 331 331 333 334 337 337
176 176 166 165 168 170 171 171 165 163 163 166 166 155 127 92 124 145 179 223 261 225 192 180 168 165 161 155 162 152 93 3 327 317 313 313 317 321 322 325 328 331 330
203 186 166 168 171 171 177 177 169 169 171 164 166 164 156 160 171 154 161 180 200 249 221 196 184 177 172 168 184 173 164 303 301 300 302 307 315 319 321 321 321 320 318
207 203 184 181 176 179 179 171 166 172 170 166 172 176 174 171 156 148 145 156 168 247 259 236 207 181 178 174 194 185 210 280 290 292 295 304 311 314 315 314 315 315 314
202 191 190 188 182 177 175 166 165 172 168 172 176 173 172 175 152 151 154 148 144 253 266 245 241 196 185 180 208 189 208 275 290 292 297 303 310 312 309 307 308 308 309
188 181 183 182 182 180 178 167 171 178 170 177 177 173 172 167 153 154 152 154 156 178 230 235 227 220 193 191 210 185 207 262 284 290 295 301 304 303 302 302 302 303 304
186 178 183 182 181 182 178 173 172 175 170 178 174 173 180 167 159 163 162 167 164 165 204 223 220 214 192 206 225 202 225 267 275 284 288 291 295 296 296 297 299 300 301
187 185 186 185 184 183 179 179 184 175 181 185 181 183 191 175 167 169 165 166 168 159 195 236 232 222 199 212 239 229 237 240 255 275 281 285 288 291 293 294 295 297 299
191 190 188 188 188 187 185 188 192 186 187 192 194 189 193 181 180 176 173 177 176 172 176 211 233 221 225 222 226 238 251 253 248 270 277 282 283 286 289 290 292 295 297
190 190 188 191 194 191 190 196 194 192 194 198 197 196 195 182 190 186 180 183 180 176 172 187 220 217 230 231 234 255 254 259 266 272 278 278 279 285 289 290 292 293 295
193 193 194 194 196 195 194 193 191 193 197 202 201 201 198 192 196 189 187 188 179 176 174 186 212 222 227 235 216 237 270 259 270 280 274 275 281 289 289 289 290 291 292
200 199 192 189 192 195 199 191 189 191 193 198 200 204 206 201 200 195 191 187 183 184 184 194 213 220 226 218 231 224 250 276 277 258 259 268 274 272 277 283 287 286 288
193 190 195 190 198 212 208 200 191 189 189 194 199 204 211 206 207 208 207 201 194 192 195 200 213 220 233 224 221 228 237 263 277 248 245 273 255 263 264 258 277 286 288
189 194 202 196 208 216 207 205 199 191 191 197 197 197 210 209 206 198 211 215 217 221 214 201 207 220 222 216 211 229 235 239 255 253 256 277 270 270 267 274 283 286 287
202 205 207 202 205 218 209 209 203 196 197 200 200 201 202 205 204 196 195 205 219 225 225 215 213 222 220 214 211 221 230 252 263 254 221 266 273 271 278 271 281 283 284
221 225 213 204 206 226 217 212 202 185 193 202 204 202 201 207 215 210 197 204 223 237 240 233 232 237 240 243 235 212 224 259 277 268 220 235 267 284 280 268 272 279 283
226 214 224 221 213 225 223 215 200 181 191 202 208 212 216 217 222 219 206 203 220 235 222 235 241 246 240 236 237 220 208 232 263 268 219 211 263 295 293 268 261 271 278